TimeCST,TemperatureF,Dew PointF,Humidity,Sea Level PressureIn,VisibilityMPH,Wind Direction,Wind SpeedMPH,Gust SpeedMPH,PrecipitationIn,Events,Conditions,WindDirDegrees,DateUTC
12:53 AM,52.0,33.1,49,30.12,10.0,South,10.4,-,N/A,,Clear,170,2012-11-19 06:53:00
1:53 AM,54.0,33.1,45,30.10,10.0,South,11.5,-,N/A,,Clear,170,2012-11-19 07:53:00
2:53 AM,54.0,34.0,47,30.10,10.0,South,12.7,-,N/A,,Clear,180,2012-11-19 08:53:00
3:53 AM,52.0,37.9,59,30.09,10.0,South,13.8,-,N/A,,Clear,180,2012-11-19 09:53:00
4:53 AM,50.0,39.9,68,30.10,10.0,South,10.4,-,N/A,,Clear,180,2012-11-19 10:53:00
5:53 AM,48.9,41.0,74,30.10,10.0,South,10.4,-,N/A,,Clear,180,2012-11-19 11:53:00
6:53 AM,46.9,42.1,83,30.10,10.0,South,10.4,-,N/A,,Clear,180,2012-11-19 12:53:00
7:53 AM,48.0,42.1,80,30.12,10.0,South,10.4,-,N/A,,Clear,190,2012-11-19 13:53:00
8:53 AM,52.0,43.0,71,30.12,10.0,South,13.8,-,N/A,,Clear,190,2012-11-19 14:53:00
9:53 AM,55.0,43.0,64,30.12,10.0,SSW,13.8,-,N/A,,Clear,200,2012-11-19 15:53:00
10:53 AM,59.0,43.0,55,30.10,10.0,SSW,16.1,23.0,N/A,,Clear,200,2012-11-19 16:53:00
11:53 AM,61.0,43.0,52,30.07,10.0,SSW,16.1,23.0,N/A,,Clear,210,2012-11-19 17:53:00
12:53 PM,63.0,44.1,50,30.05,10.0,SW,13.8,-,N/A,,Clear,220,2012-11-19 18:53:00
1:53 PM,64.0,44.1,48,30.04,10.0,SW,11.5,-,N/A,,Clear,220,2012-11-19 19:53:00
2:53 PM,66.0,44.1,45,30.04,10.0,WSW,9.2,-,N/A,,Clear,240,2012-11-19 20:53:00
3:53 PM,64.9,45.0,48,30.04,10.0,SSW,8.1,-,N/A,,Clear,200,2012-11-19 21:53:00
4:53 PM,61.0,45.0,56,30.05,10.0,South,4.6,-,N/A,,Clear,190,2012-11-19 22:53:00
5:53 PM,57.9,44.1,60,30.06,10.0,SW,5.8,-,N/A,,Clear,220,2012-11-19 23:53:00
6:53 PM,48.9,41.0,74,30.08,10.0,Calm,Calm,-,N/A,,Clear,0,2012-11-20 00:53:00
7:53 PM,48.0,39.9,74,30.09,10.0,West,4.6,-,N/A,,Clear,270,2012-11-20 01:53:00
8:53 PM,48.0,39.9,74,30.10,10.0,NW,4.6,-,N/A,,Clear,310,2012-11-20 02:53:00
9:53 PM,41.0,37.0,86,30.11,10.0,Calm,Calm,-,N/A,,Clear,0,2012-11-20 03:53:00
10:53 PM,41.0,37.0,86,30.11,10.0,Calm,Calm,-,N/A,,Clear,0,2012-11-20 04:53:00
11:53 PM,41.0,37.9,89,30.12,10.0,Calm,Calm,-,N/A,,Clear,0,2012-11-20 05:53:00